Land O' Lakes, WI

11:52 PM CDT on September 19, 2017 (GMT -0500)
Kings Land O'Lakes

Weather History for KLNL - June, 2014

Change the Weather History Date:

Wednesday, June 4, 2014

  Actual Average (KEGV) Record (KEGV)
Temperature  
Mean Temperature 57 °F -  
Max Temperature 75 °F 70 °F 82 °F (2011)
Min Temperature 40 °F 46 °F 32 °F (1998)
Degree Days  
Heating Degree Days 8    
Growing Degree Days 7 (Base 50)    
Moisture  
Dew Point 41 °F    
Average Humidity 62    
Maximum Humidity 100    
Minimum Humidity 24    
Precipitation  
Precipitation 0.00 in - - ()
Sea Level Pressure  
Sea Level Pressure 29.94 in    
Wind  
Wind Speed 2 mph (NNE)    
Max Wind Speed 12 mph    
Max Gust Speed 18 mph    
Visibility 10 miles    
Events      
Averages and records for this station are not official NWS values.
T = Trace of Precipitation, MM = Missing Value Source: NWS Daily Summary

Daily Weather History Graph

Daily Weather History Graph

Search for Another Location

Airport or City:

Trip Planner

Search our weather history database for the weather conditions in past years. The results will help you decide how hot, cold, wet, or windy it might be!

Date:

Astronomy

Jun. 04, 2014 Rise Set
Actual Time 5:07 AM CDT 8:43 PM CDT
Civil Twilight 4:29 AM CDT 9:21 PM CDT
Nautical Twilight 3:39 AM CDT 10:11 PM CDT
Astronomical Twilight 2:31 AM CDT 11:19 PM CDT
Moon 11:42 AM CDT (6/4) 12:27 AM CDT (6/4)
Length of Visible Light 16h 51m
Length of Day
15h 35m
Waxing Crescent, 39% of the Moon is Illuminated
Jun 4
Waxing Crescent
Jun 5
First Quarter
Jun 12
Full
Jun 19
Last Quarter
Jun 27
New

Hourly Weather History & Observations

Time (CDT) Temp. Dew Point Humidity Pressure Visibility Wind Dir Wind Speed Gust Speed Precip Events Conditions
12:15 AM 45.1 °F 44.6 °F 98% 29.92 in 7.0 mi Calm Calm - N/A   Clear
12:35 AM 45.0 °F 44.4 °F 98% 29.92 in 10.0 mi Calm Calm - N/A   Clear
12:55 AM 44.2 °F 43.9 °F 99% 29.92 in 10.0 mi Calm Calm - N/A   Clear
1:15 AM 43.3 °F 43.0 °F 99% 29.92 in 10.0 mi Calm Calm - N/A   Clear
1:35 AM 43.5 °F 43.0 °F 98% 29.92 in 10.0 mi Calm Calm - N/A   Clear
1:55 AM 42.8 °F 42.3 °F 98% 29.92 in 10.0 mi Calm Calm - N/A   Clear
2:15 AM 42.8 °F 42.4 °F 99% 29.92 in 10.0 mi Calm Calm - N/A   Clear
2:35 AM 42.4 °F 42.3 °F 99% 29.92 in 10.0 mi Calm Calm - N/A   Clear
2:55 AM 41.9 °F 41.7 °F 99% 29.92 in 10.0 mi Calm Calm - N/A   Clear
3:15 AM 42.3 °F 42.1 °F 99% 29.92 in 10.0 mi Calm Calm - N/A   Clear
3:35 AM 41.5 °F 41.4 °F 99% 29.93 in 10.0 mi Calm Calm - N/A   Clear
4:15 AM 41.2 °F 41.0 °F 99% 29.93 in 7.0 mi Calm Calm - N/A   Clear
4:35 AM 40.5 °F 40.3 °F 99% 29.93 in 10.0 mi Calm Calm - N/A   Clear
4:55 AM 40.8 °F 40.5 °F 99% 29.94 in 10.0 mi Calm Calm - N/A   Clear
5:15 AM 40.6 °F 40.6 °F 100% 29.93 in 10.0 mi Calm Calm - N/A   Clear
5:35 AM 41.0 °F 40.6 °F 99% 29.93 in 10.0 mi Calm Calm - N/A   Clear
5:55 AM 43.0 °F 42.8 °F 99% 29.93 in 10.0 mi Calm Calm - N/A   Clear
6:15 AM 45.5 °F 44.8 °F 97% 29.92 in 10.0 mi Calm Calm - N/A   Clear
6:35 AM 48.4 °F 47.7 °F 97% 29.93 in 10.0 mi Calm Calm - N/A   Clear
6:55 AM 51.3 °F 49.8 °F 95% 29.93 in 10.0 mi Calm Calm - N/A   Clear
7:15 AM 54.5 °F 50.5 °F 86% 29.94 in 10.0 mi Calm Calm - N/A   Clear
7:35 AM 57.7 °F 52.3 °F 82% 29.93 in 10.0 mi Calm Calm - N/A   Clear
7:55 AM 59.5 °F 52.0 °F 76% 29.94 in 10.0 mi Calm Calm - N/A   Clear
8:15 AM 62.2 °F 51.4 °F 68% 29.94 in 10.0 mi Calm Calm - N/A   Clear
8:35 AM 64.9 °F 49.1 °F 56% 29.94 in 7.0 mi NNE 4.6 mph - N/A   Clear
8:55 AM 66.2 °F 49.6 °F 55% 29.94 in 10.0 mi NNE 5.8 mph - N/A   Clear
9:15 AM 67.1 °F 47.7 °F 50% 29.94 in 10.0 mi NNE 6.9 mph - N/A   Clear
9:35 AM 67.1 °F 46.2 °F 47% 29.94 in 10.0 mi NE 6.9 mph - N/A   Clear
9:55 AM 67.3 °F 46.2 °F 47% 29.94 in 10.0 mi NE 4.6 mph - N/A   Clear
10:15 AM 66.9 °F 46.2 °F 47% 29.94 in 10.0 mi NNE 4.6 mph - N/A   Clear
10:35 AM 68.9 °F 46.9 °F 45% 29.94 in 10.0 mi NNE 4.6 mph - N/A   Scattered Clouds
10:55 AM 70.5 °F 44.6 °F 39% 29.94 in 10.0 mi NE 5.8 mph - N/A   Mostly Cloudy
11:15 AM 69.8 °F 42.6 °F 37% 29.94 in 10.0 mi North 8.1 mph - N/A   Scattered Clouds
11:35 AM 70.7 °F 41.5 °F 35% 29.95 in 10.0 mi East 6.9 mph - N/A   Scattered Clouds
11:55 AM 71.4 °F 39.4 °F 31% 29.95 in 10.0 mi Calm Calm - N/A   Scattered Clouds
12:15 PM 71.1 °F 36.3 °F 28% 29.95 in 10.0 mi Calm Calm - N/A   Clear
12:35 PM 72.0 °F 36.5 °F 27% 29.95 in 10.0 mi NE 8.1 mph - N/A   Clear
12:55 PM 71.8 °F 34.5 °F 26% 29.94 in 10.0 mi NE 4.6 mph - N/A   Clear
1:15 PM 73.4 °F 34.5 °F 24% 29.94 in 10.0 mi East 5.8 mph - N/A   Clear
1:35 PM 73.8 °F 35.6 °F 25% 29.94 in 10.0 mi NW 3.5 mph - N/A   Clear
1:55 PM 73.8 °F 38.7 °F 28% 29.94 in 10.0 mi North 4.6 mph - N/A   Mostly Cloudy
2:15 PM 73.6 °F 37.2 °F 27% 29.94 in 10.0 mi NW 3.5 mph - N/A   Scattered Clouds
2:55 PM 73.8 °F 35.2 °F 25% 29.93 in 10.0 mi WNW 4.6 mph - N/A   Clear
3:35 PM 74.8 °F 39.4 °F 28% 29.93 in 10.0 mi East 4.6 mph - N/A   Mostly Cloudy
4:15 PM 74.7 °F 39.2 °F 28% 29.93 in 10.0 mi North 6.9 mph 17.3 mph N/A   Scattered Clouds
4:35 PM 74.7 °F 39.9 °F 29% 29.94 in 10.0 mi NNE 11.5 mph 18.4 mph N/A   Clear
4:55 PM 71.8 °F 39.0 °F 30% 29.94 in 10.0 mi NE 6.9 mph 17.3 mph N/A   Scattered Clouds
5:15 PM 73.4 °F 39.0 °F 29% 29.94 in 10.0 mi NNW 10.4 mph - N/A   Clear
5:35 PM 73.2 °F 38.5 °F 28% 29.94 in 10.0 mi North 9.2 mph - N/A   Clear
5:55 PM 72.9 °F 37.0 °F 27% 29.94 in 10.0 mi North 9.2 mph - N/A   Clear
6:15 PM 72.3 °F 35.4 °F 26% 29.94 in 10.0 mi North 10.4 mph 16.1 mph N/A   Clear
6:35 PM 71.1 °F 33.1 °F 25% 29.94 in 10.0 mi North 10.4 mph - N/A   Clear
6:55 PM 70.7 °F 32.2 °F 24% 29.95 in 10.0 mi NNE 8.1 mph - N/A   Clear
7:15 PM 69.8 °F 30.9 °F 24% 29.95 in 10.0 mi NNE 8.1 mph - N/A   Clear
7:35 PM 68.9 °F 32.2 °F 26% 29.95 in 10.0 mi NE 4.6 mph - N/A   Clear
7:55 PM 67.3 °F 32.0 °F 27% 29.95 in 10.0 mi NNE 6.9 mph - N/A   Clear
8:15 PM 65.8 °F 32.0 °F 28% 29.96 in 10.0 mi NNE 4.6 mph - N/A   Clear
8:35 PM 64.2 °F 32.0 °F 30% 29.96 in 10.0 mi NE 3.5 mph - N/A   Clear
8:55 PM 61.9 °F 32.4 °F 33% 29.96 in 10.0 mi ENE 3.5 mph - N/A   Clear
9:15 PM 53.1 °F 47.1 °F 80% 29.96 in 10.0 mi Calm Calm - N/A   Clear
9:35 PM 51.6 °F 41.9 °F 69% 29.96 in 10.0 mi Calm Calm - N/A   Clear
9:55 PM 49.1 °F 44.6 °F 84% 29.97 in 10.0 mi Calm Calm - N/A   Clear
10:15 PM 47.7 °F 42.4 °F 82% 29.97 in 10.0 mi Calm Calm - N/A   Clear
10:35 PM 48.6 °F 42.3 °F 79% 29.97 in 10.0 mi Calm Calm - N/A   Clear
10:55 PM 46.6 °F 44.1 °F 91% 29.97 in 10.0 mi Calm Calm - N/A   Clear
11:15 PM 45.5 °F 43.7 °F 93% 29.98 in 10.0 mi Calm Calm - N/A   Clear
11:35 PM 45.7 °F 44.4 °F 95% 29.98 in 10.0 mi Calm Calm - N/A   Clear
11:55 PM 44.6 °F 43.5 °F 96% 29.99 in 10.0 mi Calm Calm - N/A   Clear